Flag for Germany Weather past 2 weeks in Naumburg (Saale), Saxony-Anhalt, Germany

Now
54 °F

Overcast.


Feels Like: 53 °F
Forecast: 37 / 51 °F
Wind: 5 mph from Southwest

Location: Gera-Leumnitz


UV Index: 3 (Moderate)

Visibility: 47 mi


Pressure: 30.16 "Hg

Humidity: 35%

Dew point: 27 °F

Location of Naumburg (Saale)Location

Historic Weather in Naumburg (Saale)

°F

Naumburg (Saale) temperature yesterday

Maximum temperature yesterday: 49 °F (at 5:00 PM)
Minimum temperature yesterday: 36 °F (at 3:00 AM)
Average temperature yesterday: 42 °F

Past Weeks' High & Low Weather Summary

 TemperatureHumidityPressure
High71 °F (Apr 3, 3:00 PM)97% (Apr 6, 3:00 AM)30.46 "Hg (Apr 6, 3:00 AM)
Low30 °F (Apr 17, 5:00 AM)31% (Apr 3, 4:00 PM)29.64 "Hg (Apr 3, 4:00 PM)
Average50 °F72%30.03 "Hg
* Reported Apr 2 2:00 PM — Apr 17 2:00 PM, Naumburg (Saale), Weather by CustomWeather, © 2014

Note: Actual official high and low records may vary slightly from our data, if they occured in-between our weather recording intervals... More about our weather records

Advertising

Historic Weather Conditions — Data for Previous 24 hours

 ConditionsComfort  
Time TempWeatherWind HumidityBarometerVisibility
2:00 PM
Apr 17
52 °FPartly sunny.5 mph36%30.20 "Hg47 mi
1:00 PM51 °FScattered clouds.3 mph35%30.24 "Hg43 mi
12:00 PM50 °FScattered clouds.5 mph38%30.28 "Hg47 mi
11:00 AM48 °FPassing clouds.3 mph42%30.32 "Hg43 mi
10:00 AM45 °FPassing clouds.5 mph58%30.34 "Hg37 mi
9:00 AM39 °FPassing clouds.5 mph70%30.36 "Hg40 mi
8:00 AM34 °FPassing clouds.3 mph83%30.38 "Hg40 mi
7:00 AM30 °FPassing clouds.3 mph90%30.40 "Hg28 mi
6:00 AM30 °FPassing clouds.3 mph89%30.40 "Hg17 mi
5:00 AM30 °FClear.3 mph90%30.41 "Hg11 mi
4:00 AM31 °FClear.3 mph88%30.42 "Hg13 mi
3:00 AM31 °FClear.3 mph88%30.44 "Hg14 mi
2:00 AM33 °FClear.3 mph86%30.44 "Hg14 mi
1:00 AM33 °FClear.3 mph87%30.45 "Hg12 mi
12:00 AM36 °FClear.2 mph80%30.44 "Hg5 mi
11:00 PM
Apr 16
38 °FClear.1 mph70%30.45 "Hg28 mi
10:00 PM41 °FClear.1 mph60%30.44 "Hg40 mi
9:00 PM43 °FPassing clouds.1 mph57%30.43 "Hg37 mi
8:00 PM46 °FPassing clouds.2 mph51%30.42 "Hg37 mi
7:00 PM47 °FPassing clouds.3 mph50%30.42 "Hg37 mi
6:00 PM47 °FPassing clouds.3 mph46%30.42 "Hg37 mi
5:00 PM49 °FPassing clouds.5 mph41%30.43 "Hg34 mi
4:00 PM49 °FPassing clouds.3 mph48%30.43 "Hg22 mi
3:00 PM48 °FScattered clouds.3 mph58%30.44 "Hg19 mi
Weather by CustomWeather, © 2014

See weather overview